星链-31876 (STARLINK-31876 )

导读 | 星芒AI

STARLINK-31876 是 SpaceX Starlink 卫星互联网项目中的一颗低轨卫星,属于第6批部署的星链卫星群。该卫星于2023年发射,运行在约550公里高的近地轨道,旨在为全球用户提供高速互联网服务。Starlink 项目致力于构建一个由数千颗卫星组成的星座,以改善偏远地区的网络接入。STARLINK-31876 采用先进通信技术,支持高速数据传输,并具备自动避障功能,以确保轨道安全。

基本信息
目录编号:
59938
目录名称:
STARLINK-31876
国际标识:
2024-106S
轨道中心:
EARTH
卫星名称:
星链-31876
卫星全名:
星链-31876 (STARLINK-31876 )
卫星状态:
在轨 (已飞行517 天)
发射日期:
2024-06-01 UTC
国别 :
美国 (US)
星等 :
--
轨道信息
数据来源 国际轨道数据 AOE轨道数据
星历时间 2025-10-30T20:06:07+0800
19小时前
查看轨道信息
2025-10-31T06:00:00+0800
9小时前
查看轨道信息
半长轴 6861.207km 6861.181km
偏心率 0.0000083 0.0001
轨道倾角 43.002° 43.004°
近地点辐角 331.540° 231.810°
升交点赤经 347.653° 345.329°
平近点角 28.545° 238.968°
近地点 483.015km 482.359km
远地点 483.129km 483.733km
周期 94.267分钟 94.267分钟
每日圈数 15.275732 15.275818
详细信息
固有亮度:
5
最大亮度:
1.5
卫星平台:
Starlink v2.0 mini
覆盖范围:
全球
运营商:
太空探索技术公司
运营商所在国:
美国
制造商(研发单位):
太空探索技术公司
制造商所在国:
美国
使用方式:
暂无
卫星简介
星链(Starlink)计划是由太空探索技术公司(SpaceX)提出的一个巨型低轨卫星互联网星座项目,计划在2019年至2024年间在太空搭建由约1.2万颗卫星组成的“星链”网络,其中1584颗将部署在地球上空550千米处的近地轨道,并从2020年开始工作。该卫星仍在工作。
2D轨道图
3D轨道图
轨道高度分析图
轨道倾角分析图
轨道综合分析图
查看轨道综合分析图